User: anonymous   Login
Location: Newark
(26.8229°N, 81.7649°W)
Time: 19:02:47
(UTC+00:00)
Language:

LilacSat-2 - Orbit

View from above orbital plane
View from above orbital plane
View from above satellite
View from above satellite

Ground track
Ground track

The orbit data is extracted from the following two-line orbital elements,

1 40908U 15049K   20101.44715951  .00000105  00000-0  93983-5 0  9993
2 40908  97.4897 101.9457 0014217 255.8411 262.1213 15.13996138251703
Epoch (UTC): 10 April 2020 10:43:54
Eccentricity: 0.0014217
inclination: 97.4897°
perigee height: 514 km
apogee height: 534 km
right ascension of ascending node: 101.9457°
argument of perigee: 255.8411°
revolutions per day: 15.13996138
mean anomaly at epoch: 262.1213°
orbit number at epoch: 25170

The dashed part of the orbit path shows where the satellite is in the earth's shadow,  

DLR